カタログに戻る

ORBCOMM FM 9

運用中通信LEO
NORAD 25116·PAYLOAD·🇺🇸 United States

打ち上げ Dec 23, 1997 から Cape Canaveral Space Force Station

Loading…

次のパス (今後24時間)

TLE

最新Source: Space-Track

元期: Sep 14, 2026, 14:36 UTC

1 25116U 97084E   26257.60888219  .00000753  00000-0  24621-3 0  9990
2 25116  45.0162 349.2849 0004556 326.9090  33.1477 14.46700596507259

AllMySatでORBCOMM FM 9をリアルタイム追跡

Download on the App Store